Time,TemperatureF,DewpointF,PressureIn,WindDirection,WindDirectionDegrees,WindSpeedMPH,WindSpeedGustMPH,Humidity,HourlyPrecipIn,Conditions,Clouds,dailyrainin,SoftwareType,DateUTC
2013-03-03 00:00:00,42.1,37.9,29.82,ESE,118,0.5,1.6,85,0.04,,,0.28,WUHU216HW,2013-03-03 08:00:00,
2013-03-03 00:05:00,42.1,38.2,29.82,NE,45,0.0,1.1,86,0.04,,,0.00,WUHU216HW,2013-03-03 08:05:00,
2013-03-03 00:10:00,42.1,37.9,29.82,NE,45,0.2,0.4,85,0.04,,,0.00,WUHU216HW,2013-03-03 08:10:00,
2013-03-03 00:11:00,42.1,37.9,29.82,SW,225,0.0,0.2,85,0.04,,,0.00,WUHU216HW,2013-03-03 08:11:00,
2013-03-03 00:15:00,42.1,37.9,29.82,SW,225,0.0,1.8,85,0.04,,,0.00,WUHU216HW,2013-03-03 08:15:00,
2013-03-03 00:20:00,42.1,37.9,29.82,SW,225,0.0,1.8,85,0.04,,,0.00,WUHU216HW,2013-03-03 08:20:00,
2013-03-03 01:00:00,41.8,37.8,29.82,ENE,68,0.0,0.0,86,0.00,,,0.00,WUHU216HW,2013-03-03 09:00:00,
2013-03-03 01:05:00,41.8,37.8,29.82,ENE,68,0.0,0.0,86,0.00,,,0.00,WUHU216HW,2013-03-03 09:05:00,
2013-03-03 02:00:00,41.0,37.5,29.83,SSE,158,0.0,0.0,87,0.00,,,0.00,WUHU216HW,2013-03-03 10:00:00,
2013-03-03 02:05:00,41.0,37.5,29.83,SSE,158,0.0,0.0,87,0.00,,,0.00,WUHU216HW,2013-03-03 10:05:00,
2013-03-03 03:00:00,40.3,36.7,29.84,South,180,0.2,0.2,87,0.00,,,0.00,WUHU216HW,2013-03-03 11:00:00,
2013-03-03 03:05:00,40.3,36.7,29.84,South,180,0.2,0.2,87,0.00,,,0.00,WUHU216HW,2013-03-03 11:05:00,
2013-03-03 04:00:00,39.6,36.0,29.84,SSW,203,0.9,0.9,87,0.00,,,0.00,WUHU216HW,2013-03-03 12:00:00,
2013-03-03 04:05:00,39.4,35.8,29.84,SW,225,0.4,1.1,87,0.00,,,0.00,WUHU216HW,2013-03-03 12:05:00,
2013-03-03 04:10:00,39.6,36.0,29.84,SW,225,0.7,1.1,87,0.00,,,0.00,WUHU216HW,2013-03-03 12:10:00,
2013-03-03 04:15:00,39.4,35.8,29.84,South,180,0.6,1.6,87,0.00,,,0.00,WUHU216HW,2013-03-03 12:15:00,
2013-03-03 04:20:00,39.4,35.8,29.85,South,180,0.8,1.6,87,0.00,,,0.00,WUHU216HW,2013-03-03 12:20:00,
2013-03-03 04:25:00,39.2,35.6,29.85,SSW,200,0.7,1.3,87,0.00,,,0.00,WUHU216HW,2013-03-03 12:25:00,
2013-03-03 04:28:00,39.2,35.6,29.85,South,180,3.6,3.6,87,0.00,,,0.00,WUHU216HW,2013-03-03 12:28:00,
2013-03-03 04:30:00,39.2,35.6,29.85,South,180,3.6,3.6,87,0.00,,,0.00,WUHU216HW,2013-03-03 12:30:00,
2013-03-03 04:35:00,39.2,35.6,29.85,South,180,3.6,3.6,87,0.00,,,0.00,WUHU216HW,2013-03-03 12:35:00,
2013-03-03 05:00:00,39.1,35.5,29.86,SSE,158,0.9,0.9,87,0.00,,,0.00,WUHU216HW,2013-03-03 13:00:00,
2013-03-03 05:05:00,39.1,35.5,29.86,SSE,158,0.9,0.9,87,0.00,,,0.00,WUHU216HW,2013-03-03 13:05:00,
2013-03-03 06:00:00,37.8,34.6,29.87,South,180,0.2,0.2,88,0.00,,,0.00,WUHU216HW,2013-03-03 14:00:00,
2013-03-03 06:05:00,37.8,34.6,29.87,South,180,0.2,0.2,88,0.00,,,0.00,WUHU216HW,2013-03-03 14:05:00,
2013-03-03 07:00:00,37.4,34.5,29.88,South,180,0.4,0.4,89,0.01,,,0.00,WUHU216HW,2013-03-03 15:00:00,
2013-03-03 07:05:00,37.4,34.5,29.88,South,180,0.4,0.4,89,0.01,,,0.00,WUHU216HW,2013-03-03 15:05:00,
2013-03-03 08:00:00,43.2,39.2,29.88,SW,225,0.0,0.0,86,0.00,,,0.01,WUHU216HW,2013-03-03 16:00:00,
2013-03-03 08:05:00,43.2,39.2,29.88,SW,225,0.0,0.0,86,0.00,,,0.01,WUHU216HW,2013-03-03 16:05:00,
2013-03-03 09:00:00,63.0,47.0,29.90,SSW,203,0.7,0.7,56,0.00,,,0.01,WUHU216HW,2013-03-03 17:00:00,
2013-03-03 09:05:00,64.6,47.5,29.90,South,177,1.8,2.2,54,0.00,,,0.01,WUHU216HW,2013-03-03 17:05:00,
2013-03-03 09:10:00,65.5,44.1,29.89,SSE,158,2.0,4.0,46,0.00,,,0.01,WUHU216HW,2013-03-03 17:10:00,
2013-03-03 09:15:00,65.3,45.1,29.89,South,181,2.6,4.0,48,0.00,,,0.01,WUHU216HW,2013-03-03 17:15:00,
2013-03-03 09:20:00,65.7,47.1,29.90,SSE,158,3.8,4.7,51,0.00,,,0.01,WUHU216HW,2013-03-03 17:20:00,
2013-03-03 09:25:00,67.0,44.8,29.90,South,183,2.9,4.7,45,0.00,,,0.01,WUHU216HW,2013-03-03 17:25:00,
2013-03-03 09:30:00,67.5,45.4,29.90,South,171,2.6,4.3,45,0.00,,,0.01,WUHU216HW,2013-03-03 17:30:00,
2013-03-03 09:35:00,67.3,42.8,29.90,SSE,167,2.3,4.5,41,0.00,,,0.01,WUHU216HW,2013-03-03 17:35:00,
2013-03-03 09:40:00,67.7,45.5,29.89,South,170,1.6,4.5,45,0.00,,,0.01,WUHU216HW,2013-03-03 17:40:00,
2013-03-03 09:45:00,68.8,45.3,29.89,SSE,167,2.9,3.8,43,0.00,,,0.01,WUHU216HW,2013-03-03 17:45:00,
2013-03-03 09:50:00,68.8,42.8,29.89,South,181,3.2,4.9,39,0.00,,,0.01,WUHU216HW,2013-03-03 17:50:00,
2013-03-03 09:55:00,68.8,44.6,29.89,South,172,1.9,4.9,42,0.00,,,0.01,WUHU216HW,2013-03-03 17:55:00,
2013-03-03 10:00:00,69.5,45.4,29.89,South,171,2.0,4.7,42,0.00,,,0.01,WUHU216HW,2013-03-03 18:00:00,
2013-03-03 10:05:00,70.0,43.9,29.89,SSE,163,2.7,4.7,39,0.00,,,0.01,WUHU216HW,2013-03-03 18:05:00,
2013-03-03 10:10:00,70.2,44.8,29.89,South,180,3.6,4.7,40,0.00,,,0.01,WUHU216HW,2013-03-03 18:10:00,
2013-03-03 10:15:00,71.3,45.0,29.89,ESE,120,1.2,4.7,39,0.00,,,0.01,WUHU216HW,2013-03-03 18:15:00,
2013-03-03 10:20:00,71.8,45.6,29.89,South,179,2.2,4.7,39,0.00,,,0.01,WUHU216HW,2013-03-03 18:20:00,
2013-03-03 10:25:00,71.8,45.6,29.89,SW,225,1.3,4.7,39,0.00,,,0.01,WUHU216HW,2013-03-03 18:25:00,
2013-03-03 10:30:00,71.8,45.6,29.89,SSE,158,1.3,2.5,39,0.00,,,0.01,WUHU216HW,2013-03-03 18:30:00,
2013-03-03 10:34:00,72.4,46.0,29.89,NW,315,0.4,0.9,39,0.00,,,0.01,WUHU216HW,2013-03-03 18:34:00,
2013-03-03 10:35:00,72.4,46.0,29.89,NW,315,0.7,2.0,39,0.00,,,0.01,WUHU216HW,2013-03-03 18:35:00,
2013-03-03 10:40:00,72.4,46.0,29.89,NW,315,0.4,1.3,39,0.00,,,0.01,WUHU216HW,2013-03-03 18:40:00,
2013-03-03 11:00:00,74.2,46.8,29.89,WNW,293,0.7,0.7,38,0.00,,,0.01,WUHU216HW,2013-03-03 19:00:00,
2013-03-03 11:05:00,74.2,46.8,29.89,WNW,293,0.7,0.7,38,0.00,,,0.01,WUHU216HW,2013-03-03 19:05:00,
2013-03-03 12:00:00,58.1,38.0,29.89,North,0,0.4,0.4,47,0.00,,,0.01,WUHU216HW,2013-03-03 20:00:00,
2013-03-03 12:05:00,58.0,37.8,29.89,West,260,1.6,4.0,47,0.00,,,0.01,WUHU216HW,2013-03-03 20:05:00,
2013-03-03 12:10:00,57.6,37.4,29.89,South,190,1.6,4.0,47,0.00,,,0.01,WUHU216HW,2013-03-03 20:10:00,
2013-03-03 12:11:00,57.8,37.6,29.89,NW,315,6.3,6.3,47,0.00,,,0.01,WUHU216HW,2013-03-03 20:11:00,